Time,TemperatureF,DewpointF,PressureIn,WindDirection,WindDirectionDegrees,WindSpeedMPH,WindSpeedGustMPH,Humidity,HourlyPrecipIn,Conditions,Clouds,dailyrainin,SolarRadiationWatts/m^2,SoftwareType,DateUTC
2013-02-26 00:01:00,40.0,31.0,-100.00,NE,45,9.0,16.0,69,0.00,,,0.00,0.000000,,2013-02-26 05:01:00,
2013-02-26 00:32:00,41.0,34.0,-100.00,NE,41,11.0,16.0,77,0.00,,,0.00,0.000000,,2013-02-26 05:32:00,
2013-02-26 00:43:00,41.0,34.0,-100.00,NE,41,11.0,16.0,77,0.00,,,0.00,0.000000,,2013-02-26 05:43:00,
2013-02-26 00:52:00,41.0,34.0,-100.00,NE,41,11.0,16.0,77,0.00,,,0.00,0.000000,,2013-02-26 05:52:00,
2013-02-26 01:02:00,41.0,34.0,-100.00,NE,41,11.0,16.0,77,0.00,,,0.00,0.000000,,2013-02-26 06:02:00,
2013-02-26 01:32:00,41.0,36.0,-100.00,NE,43,11.0,16.0,82,0.00,,,0.00,0.000000,,2013-02-26 06:32:00,
2013-02-26 01:42:00,41.0,36.0,-100.00,NE,43,11.0,16.0,82,0.00,,,0.00,0.000000,,2013-02-26 06:42:00,
2013-02-26 01:52:00,41.0,36.0,-100.00,NE,43,11.0,16.0,82,0.00,,,0.00,0.000000,,2013-02-26 06:52:00,
2013-02-26 02:01:00,41.0,36.0,-100.00,NE,43,11.0,16.0,82,0.00,,,0.00,0.000000,,2013-02-26 07:01:00,
2013-02-26 02:32:00,43.0,38.0,-100.00,NE,41,10.0,15.0,82,0.00,,,0.00,0.000000,,2013-02-26 07:32:00,
2013-02-26 02:42:00,43.0,38.0,-100.00,NE,41,10.0,15.0,82,0.00,,,0.00,0.000000,,2013-02-26 07:42:00,
2013-02-26 02:52:00,43.0,38.0,-100.00,NE,41,10.0,15.0,82,0.00,,,0.00,0.000000,,2013-02-26 07:52:00,
2013-02-26 03:02:00,43.0,38.0,-100.00,NE,41,10.0,15.0,82,0.00,,,0.00,0.000000,,2013-02-26 08:02:00,
2013-02-26 03:32:00,44.0,39.0,-100.00,NE,42,9.0,17.0,82,0.00,,,0.00,0.000000,,2013-02-26 08:32:00,
2013-02-26 03:42:00,44.0,39.0,-100.00,NE,42,9.0,17.0,82,0.00,,,0.00,0.000000,,2013-02-26 08:42:00,
2013-02-26 03:52:00,44.0,39.0,-100.00,NE,42,9.0,17.0,82,0.00,,,0.00,0.000000,,2013-02-26 08:52:00,
2013-02-26 04:02:00,44.0,39.0,-100.00,NE,42,9.0,17.0,82,0.00,,,0.00,0.000000,,2013-02-26 09:02:00,
2013-02-26 04:32:00,44.0,39.0,-100.00,NE,46,10.0,15.0,83,0.00,,,0.00,0.000000,,2013-02-26 09:32:00,
2013-02-26 04:43:00,44.0,39.0,-100.00,NE,46,10.0,15.0,83,0.00,,,0.00,0.000000,,2013-02-26 09:43:00,
2013-02-26 04:52:00,44.0,39.0,-100.00,NE,46,10.0,15.0,83,0.00,,,0.00,0.000000,,2013-02-26 09:52:00,
2013-02-26 05:01:00,44.0,39.0,-100.00,NE,46,10.0,15.0,83,0.00,,,0.00,0.000000,,2013-02-26 10:01:00,
2013-02-26 05:32:00,45.0,40.0,-100.00,NE,56,8.0,16.0,83,0.00,,,0.00,0.000000,,2013-02-26 10:32:00,
2013-02-26 05:42:00,45.0,40.0,-100.00,NE,56,8.0,16.0,83,0.00,,,0.00,0.000000,,2013-02-26 10:42:00,
2013-02-26 05:52:00,45.0,40.0,-100.00,NE,56,8.0,16.0,83,0.00,,,0.00,0.000000,,2013-02-26 10:52:00,
2013-02-26 06:01:00,45.0,40.0,-100.00,NE,56,8.0,16.0,83,0.00,,,0.00,0.000000,,2013-02-26 11:01:00,
2013-02-26 06:32:00,46.0,41.0,-100.00,NE,55,9.0,13.0,83,0.00,,,0.00,0.000000,,2013-02-26 11:32:00,
2013-02-26 06:42:00,46.0,41.0,-100.00,NE,55,9.0,13.0,83,0.00,,,0.00,0.000000,,2013-02-26 11:42:00,
2013-02-26 06:53:00,46.0,41.0,-100.00,NE,55,9.0,13.0,83,0.00,,,0.00,0.000000,,2013-02-26 11:53:00,
2013-02-26 07:02:00,46.0,41.0,-100.00,NE,55,9.0,13.0,83,0.00,,,0.00,0.000000,,2013-02-26 12:02:00,
2013-02-26 07:32:00,48.0,43.0,-100.00,ENE,57,10.0,15.0,82,0.00,,,0.00,0.000000,,2013-02-26 12:32:00,
2013-02-26 07:42:00,48.0,43.0,-100.00,ENE,57,10.0,15.0,82,0.00,,,0.00,0.000000,,2013-02-26 12:42:00,
2013-02-26 07:53:00,48.0,43.0,-100.00,ENE,57,10.0,15.0,82,0.00,,,0.00,0.000000,,2013-02-26 12:53:00,
2013-02-26 08:02:00,48.0,43.0,-100.00,ENE,57,10.0,15.0,82,0.00,,,0.00,0.000000,,2013-02-26 13:02:00,
2013-02-26 08:32:00,48.0,45.0,-100.00,NE,56,7.0,-999.0,90,0.04,,,0.04,,,2013-02-26 13:32:00,
2013-02-26 08:42:00,48.0,45.0,-100.00,NE,56,7.0,-999.0,90,0.04,,,0.04,,,2013-02-26 13:42:00,
2013-02-26 08:52:00,48.0,45.0,-100.00,NE,56,7.0,-999.0,90,0.04,,,0.04,,,2013-02-26 13:52:00,
2013-02-26 09:02:00,48.0,45.0,-100.00,NE,56,7.0,-999.0,90,0.04,,,0.04,,,2013-02-26 14:02:00,
2013-02-26 11:32:00,58.0,56.0,-100.00,East,93,14.0,24.0,94,-99.99,,,0.23,99.000000,,2013-02-26 16:32:00,
2013-02-26 11:42:00,58.0,56.0,-100.00,East,93,14.0,24.0,94,-99.99,,,0.23,99.000000,,2013-02-26 16:42:00,
2013-02-26 11:52:00,58.0,56.0,-100.00,East,93,14.0,24.0,94,-99.99,,,0.23,99.000000,,2013-02-26 16:52:00,
2013-02-26 12:01:00,58.0,56.0,-100.00,East,93,14.0,24.0,94,-99.99,,,0.23,99.000000,,2013-02-26 17:01:00,